This demonstration page uses our WeatherBlox Daily Observations layout. Learn more.

38.88101, -77.10428

Hourly Observations for January 15, 2016

Temp ( °F °C ) Dew Point ( °F °C ) Humidity (%) Winds ( mph kmh ) Pressure ( in mb ) Visibility ( mi km ) Precip ( " mm )
12:52 am 00:52 Partly Cloudy 41 5 30 -1 66 66 SW 3 6 29.94 1014 10 16.09344 0 0
1:52 am 01:52 Clear 43 6 30 -1 61 61 SSW 3 6 29.94 1014 10 16.09344 0 0
2:52 am 02:52 Mostly Cloudy 43 6 30 -1 61 61 Calm 29.94 1014 10 16.09344 0 0
3:52 am 03:52 Mostly Cloudy 39 4 30 -1 70 70 SW 5 7 29.94 1014 10 16.09344 0 0
4:52 am 04:52 Mostly Cloudy 36 2 30 -1 81 81 Calm 29.94 1014 10 16.09344 0 0
5:52 am 05:52 Mostly Cloudy 36 2 32 0 87 87 SW 3 6 29.94 1014 10 16.09344 0 0
6:52 am 06:52 Partly Cloudy 37 3 30 -1 75 75 Calm 29.91 1013 10 16.09344 0 0
7:52 am 07:52 Partly Cloudy 36 2 34 1 93 93 Calm 29.91 1013 10 16.09344 0 0
8:52 am 08:52 Mostly Cloudy 39 4 32 0 75 75 S 5 7 29.91 1013 10 16.09344 0 0
9:52 am 09:52 Mostly Cloudy 43 6 34 1 71 71 SSE 9 15 29.91 1013 10 16.09344 0 0
10:52 am 10:52 Cloudy 45 7 34 1 66 66 S 9 15 29.88 1012 10 16.09344 0 0
11:52 am 11:52 Cloudy 46 8 34 1 62 62 S 8 13 29.83 1010 10 16.09344 0 0
12:52 pm 12:52 Cloudy 48 9 34 1 58 58 S 8 13 29.8 1009 10 16.09344 0 0
1:52 pm 13:52 Cloudy 48 9 32 0 54 54 S 6 9 29.74 1007 10 16.09344 0 0
1:56 pm 13:56 Cloudy 48 9 34 1 58 58 SSE 5 7 29.74 1007 10 16.09344 0 0
2:52 pm 14:52 Cloudy 48 9 34 1 58 58 S 7 11 29.71 1006 10 16.09344 0 0
3:52 pm 15:52 Cloudy 48 9 34 1 58 58 S 7 11 29.74 1007 10 16.09344 0 0
4:07 pm 16:07 Cloudy 48 9 34 1 58 58 S 7 11 29.71 1006 10 16.09344 0 0
4:33 pm 16:33 Cloudy 48 9 34 1 58 58 S 7 11 29.71 1006 10 16.09344 0 0
4:52 pm 16:52 Cloudy 48 9 34 1 58 58 SSW 8 13 29.71 1006 10 16.09344 0 0
5:19 pm 17:19 Cloudy 46 8 34 1 62 62 S 7 11 29.71 1006 10 16.09344 0 0
5:34 pm 17:34 Cloudy with Light Rain 46 8 34 1 62 62 SSW 8 13 29.71 1006 10 16.09344 0 0
5:52 pm 17:52 Cloudy with Light Rain 46 8 36 2 66 66 S 7 11 29.71 1006 10 16.09344 0.001 0.001
6:52 pm 18:52 Cloudy with Light Rain 45 7 37 3 76 76 N 9 15 29.65 1004 10 16.09344 0.04 1.016
7:46 pm 19:46 Cloudy with Rain 45 7 41 5 87 87 NNE 10 17 29.62 1003 6 9.656064 0 0
7:52 pm 19:52 Cloudy with Light Rain 45 7 41 5 87 87 NNE 10 17 29.62 1003 7 11.265408 0.08 2.032
8:52 pm 20:52 Cloudy with Light Rain 43 6 41 5 93 93 NE 8 13 29.56 1001 7 11.265408 0.05 1.27
9:52 pm 21:52 Cloudy with Light Rain 43 6 43 6 100 100 ENE 3 6 29.56 1001 7 11.265408 0.02 0.508
10:29 pm 22:29 Cloudy with Light Rain 43 6 41 5 93 93 E 5 7 29.53 1000 5 8.04672 0.01 0.254
10:52 pm 22:52 Cloudy with Light Rain 43 6 41 5 93 93 E 9 15 29.5 999 10 16.09344 0.02 0.508
11:20 pm 23:20 Cloudy with Rain 43 6 39 4 87 87 NNE 7 11 29.5 999 7 11.265408 0 0
11:52 pm 23:52 Cloudy with Light Rain 43 6 41 5 93 93 NNE 12 19 29.44 997 6 9.656064 0.1 2.54

Powered by AerisWeather